This is the latest recevied weather packets stored in our database for station/object K5IDL. If no packets are shown the sender has not sent any weather packets the latest 10 day(s).
| Time | Temp. | Humidity | Pressure | Rain* | Wind** | Luminosity | Snow |
|---|---|---|---|---|---|---|---|
| 1787957421 | 37.78° C | 33% | 1015.5 hPa | 0 mm | - | 27 W/m² | - |
| 1787957121 | 37.78° C | 33% | 1015.4 hPa | 0 mm | - | 35 W/m² | - |
| 1787956815 | 37.78° C | 34% | 1015.3 hPa | 0 mm | - | 32 W/m² | - |
| 1787956510 | 37.78° C | 34% | 1015.2 hPa | 0 mm | - | 53 W/m² | - |
| 1787956205 | 37.78° C | 34% | 1015.3 hPa | 0 mm | - | 43 W/m² | - |
| 1787955905 | 37.78° C | 33% | 1015.4 hPa | 0 mm | - | 51 W/m² | - |
| 1787955601 | 37.78° C | 34% | 1015.6 hPa | 0 mm | - | 65 W/m² | - |
| 1787955296 | 37.78° C | 34% | 1015.5 hPa | 0 mm | - | 195 W/m² | - |
| 1787954995 | 37.78° C | 33% | 1015.5 hPa | 0 mm | - | 217 W/m² | - |
| 1787954691 | 37.78° C | 34% | 1015.6 hPa | 0 mm | - | 134 W/m² | - |
| 1787954390 | 37.78° C | 34% | 1015.8 hPa | 0 mm | - | 223 W/m² | - |
| 1787954086 | 37.78° C | 34% | 1015.6 hPa | 0 mm | - | 109 W/m² | - |
| 1787953784 | 37.78° C | 35% | 1015.9 hPa | 0 mm | - | 51 W/m² | - |
| 1787953480 | 36.67° C | 35% | 1016.2 hPa | 0 mm | - | 55 W/m² | - |
| 1787953178 | 37.22° C | 36% | 1016 hPa | 0 mm | - | 40 W/m² | - |
| 1787952876 | 37.78° C | 35% | 1016.2 hPa | 0 mm | - | 39 W/m² | - |
| 1787952571 | 37.78° C | 36% | 1015.9 hPa | 0 mm | - | 149 W/m² | - |
| 1787952270 | 37.78° C | 35% | 1016.2 hPa | 0 mm | - | 66 W/m² | - |
| 1787951967 | 37.22° C | 35% | 1016.3 hPa | 0 mm | - | 60 W/m² | - |
| 1787951662 | 37.78° C | 36% | 1016.5 hPa | 0 mm | - | 67 W/m² | - |
| 1787951358 | 37.78° C | 35% | 1016.5 hPa | 0 mm | - | 95 W/m² | - |
| 1787951054 | 37.78° C | 35% | 1016.6 hPa | 0 mm | - | 68 W/m² | - |
| 1787950749 | 38.33° C | 34% | 1017 hPa | 0 mm | - | 69 W/m² | - |
| 1787950444 | 38.33° C | 34% | 1017 hPa | 0 mm | - | 62 W/m² | - |
| 1787950141 | 37.78° C | 35% | 1017 hPa | 0 mm | - | 60 W/m² | - |
* Rain latest hour (hover to see other rain measurements)
** Current wind speed in m/s (hover to see current wind gust speed)